Location: Lecco
(45.8566°N, 9.3977°E)
Time: 12:58:01
(UTC+02:00)

Explorer 11/Cluster Stage 4 - Pass Details

Date: 17 August 2020
Orbit: 467 x 1258 km, 28.8° (Epoch: 24 September)

Event Time Altitude Azimuth Distance (km) Brightness Sun altitude
Rises 21:30:52 0° 229° (SW) 3,705 10.3 -10.9°
Reaches altitude 10° 21:34:13 10° 212° (SSW) 2,890 9.5 -11.4°
Maximum altitude 21:39:08 20° 170° (S) 2,409 8.7 -12.1°
Enters shadow 21:42:35 15° 139° (SE) 2,786 8.8 -12.6°
Drops below altitude 10° 21:44:27 10° 128° (SE) 3,172 - -12.8°
Sets 21:48:21 0° 112° (ESE) 4,186 - -13.4°
